Location: Rounton
(54.4000°N, 1.3500°W)
Time: 02:26:35
(UTC+00:00)

A-11 Canister half - Pass Details

Date: 02 December 2021
Orbit: 1524 x 1684 km, 47.3° (Epoch: 19 January)

Event Time Altitude Azimuth Distance (km) Brightness Sun altitude
Exits shadow 06:01:04 19° 262° (W) 3,284 10.2 -16.8°
Maximum altitude 06:08:32 55° 193° (SSW) 1,921 9.5 -15.8°
Drops below altitude 10° 06:17:54 10° 119° (ESE) 3,814 12.4 -14.5°
Sets 06:21:01 0° 116° (ESE) 4,776 13.5 -14.1°
